Regional Weather Roundup
Issued by NWS

Home | Current Version | Previous Version | Text Only | Print | Product List | Glossary Off
Versions: 1 2 3 4 5 6 7 8 9 10 11 12 13 14 15 16 17 18 19 20 21 22 23 24 25 26 27 28 29 30 31 32 33 34 35 36 37 38 39 40 41 42 43 44 45 46 47 48 49 50

809
ASUS44 KLIX 291011
RWRLA
LOUISIANA WEATHER ROUNDUP
NATIONAL WEATHER SERVICE NEW ORLEANS LA
500 AM CDT SUN MAR 29 2015

NOTE: "FAIR" INDICATES FEW OR NO CLOUDS BELOW 12,000 FEET WITH NO
      SIGNIFICANT WEATHER AND/OR OBSTRUCTIONS TO VISIBILITY.
      SKY/WX - SKY CONDITION AND SIGNIFICANT WEATHER.
      TMP - AIR TEMPERATURE.    DP   - DEWPOINT TEMPERATURE.
      RH  - RELATIVE HUMIDITY.  PRES - PRESSURE.
      HX  - HEAT INDEX.         WCI  - WIND CHILL INDEX.

*  THESE STATIONS ARE NOT NWS OR FAA STATIONS AND ARE NOT UNDER
   NWS QUALITY CONTROL.

LAZ040-048-061>063-065-066-069-291100-
SOUTHEAST LOUISIANA

CITY           SKY/WX    TMP DP  RH WIND       PRES   REMARKS
N.O. AUDUBON   NOT AVBL
N.O. INTL ARPT MOCLDY    59  52  77 E7        30.22R
N.O. LAKEFRONT PTCLDY    58  52  80 E12       30.23S
SLIDELL        PTCLDY    47  38  71 NE6       30.25R
BATON ROUGE    CLEAR     51  49  92 E7        30.21S
BOOTHVILLE     CLEAR     57  53  86 E5        30.23R
BELLE CHASSE   MOCLDY    53  51  93 E6        30.22R
BOGALUSA*        N/A     46  34  62 CALM      30.28R
GALLIANO*      MOSUNNY   60  58  94 CALM      30.22R
NEW ROADS*     FAIR      54  51  91 E5        30.20S
GONZALES*      FAIR      53  53 100 CALM      30.21R FOG
HAMMOND*       MOCLDY    48  39  71 E3        30.26R
HOUMA*         NOT AVBL
PORT FOURCHON* SUNNY     66  63  88 E7        30.24R

$$

LAZ041-044-053-054-291100-
SOUTHWEST LOUISIANA

CITY           SKY/WX    TMP DP  RH WIND       PRES   REMARKS
LAKE CHARLES   CLEAR     57  56  96 SE5       30.14S
LAFAYETTE      CLEAR     57  55  93 CALM      30.18S
PATTERSON      CLEAR     55  54  94 E5        30.19R
SALT POINT       N/A     57  56  96 E3        30.18R
NEW IBERIA     CLEAR     54  53  97 SE3       30.19R FOG
CHENAULT AIRPK CLEAR     56  56  98 SE6       30.15S

$$

LAZ027-028-291100-
CENTRAL LOUISIANA

CITY           SKY/WX    TMP DP  RH WIND       PRES   REMARKS
FORT POLK      CLOUDY    59  57  94 SE6       30.14S FOG
ALEXANDRIA INT CLOUDY    58  57  97 SE9       30.15S FOG
ALEXANDRIA     MOCLDY    54  53  97 CALM      30.18R

$$

LAZ001-002-291100-
NORTHWEST LOUISIANA

CITY           SKY/WX    TMP DP  RH WIND       PRES   REMARKS
SHREVEPORT     CLEAR     49  40  71 E8        30.12S
BARKSDALE AFB  CLEAR     46  37  72 SE6       30.13S
DTN SHREVEPORT CLEAR     46  37  71 E5        30.13F

$$

LAZ014-016-291100-
NORTHEAST LOUISIANA

CITY           SKY/WX    TMP DP  RH WIND       PRES   REMARKS
MONROE         CLOUDY    50  37  61 SE5       30.20S
TALLULAH       CLOUDY    47  34  60 SE10      30.23S

$$




USA.gov is the U.S. government's official web portal to all federal, state and local government web resources and services.